Wind_Speed
42 42 41 40 39 39 38 37 37 35 35 33 33 33 33 33 32 31 30 30 29 28 28 27 27 26 26 26 27 27 27 27 28 28 28 29 30 31
38 39 40 39 39 39 40 38 37 36 36 35 35 34 34 35 34 33 32 30 30 30 29 28 28 28 28 27 27 28 28 29 29 30 30 31 31 32
34 36 37 38 38 37 37 36 36 36 35 34 34 35 34 35 35 34 33 32 31 31 31 30 29 29 29 29 28 28 29 29 30 30 31 31 32 32
32 33 34 36 37 36 35 34 35 35 34 34 33 34 34 34 34 34 34 33 34 33 32 31 30 29 29 29 28 27 28 29 30 30 31 31 31 30
28 30 32 33 34 34 35 35 35 35 34 34 34 34 33 34 35 34 34 34 34 33 32 30 29 28 28 28 28 29 29 29 29 30 31 30 30 30
25 28 29 30 31 32 32 33 33 33 32 32 32 32 32 32 33 34 33 33 32 31 31 29 28 28 27 28 28 28 29 29 29 29 28 28 28 27
22 24 25 27 27 28 29 30 30 29 29 29 29 29 30 30 31 31 30 30 29 28 28 28 28 27 27 26 26 26 26 27 26 25 24 24 23 22
18 20 22 23 24 24 24 26 26 27 27 27 27 27 26 26 27 28 28 28 27 26 25 25 24 24 23 23 22 22 23 22 22 22 21 20 19 18
14 16 18 20 21 22 22 23 24 24 24 24 24 24 24 25 26 25 25 24 24 23 22 22 22 21 20 20 20 20 19 18 18 17 17 17 16 15
10 12 14 15 17 19 19 19 20 21 21 21 21 21 22 22 22 22 22 22 22 21 21 20 19 19 18 18 18 17 16 16 16 15 14 13 13 12
8 10 12 13 13 14 15 15 16 17 18 18 19 19 19 19 19 20 20 20 20 20 19 19 18 17 17 17 16 15 14 13 12 11 11 11 10 10
5 7 9 11 12 13 13 13 13 13 13 14 15 16 16 16 17 17 17 18 18 17 17 17 16 16 15 15 14 13 12 10 10 9 9 9 8 8
4 6 7 8 9 10 11 11 11 12 11 12 12 13 13 14 14 15 15 15 15 15 14 14 14 14 13 13 12 11 10 8 8 8 8 8 7 7
4 4 5 6 7 8 9 10 10 10 10 10 11 11 12 12 12 12 13 13 13 13 13 12 11 11 11 10 10 9 9 8 8 8 7 7 6 6
5 5 4 6 7 7 8 8 8 8 9 9 10 10 11 10 11 11 12 11 11 11 11 11 10 10 9 9 8 8 8 8 8 7 7 6 6 7
8 7 6 6 6 6 7 7 7 8 8 8 8 9 9 10 10 10 11 10 10 10 10 10 10 9 9 8 8 8 7 7 6 6 6 6 6 6
9 8 7 6 6 6 6 6 7 7 7 7 7 8 9 9 10 10 10 10 10 9 9 9 9 9 9 8 8 8 7 7 6 7 7 7 7 7
8 8 7 7 6 6 6 6 6 6 6 6 7 7 7 8 8 8 9 9 9 9 9 9 9 9 8 8 8 8 7 7 7 7 8 8 8 8
6 6 5 5 5 5 5 5 5 5 5 6 6 6 6 7 7 7 7 8 8 8 8 8 8 8 8 8 8 8 8 8 8 8 9 9 9 9
5 4 4 4 3 3 3 3 4 4 4 5 6 7 7 7 7 7 7 8 8 8 8 8 8 9 9 9 9 9 9 9 9 9 9 10 10 10
2 1 1 1 1 1 1 2 3 3 4 5 6 6 7 7 7 8 8 8 8 8 9 9 9 10 10 10 10 10 10 10 10 10 10 11 11 11
3 3 2 2 2 2 3 3 3 4 5 5 5 6 7 7 8 8 8 8 8 9 9 9 9 10 10 10 10 10 11 11 12 12 12 12 13 13
6 5 5 5 5 5 5 5 5 5 5 5 5 6 7 8 8 9 9 9 9 9 9 9 9 10 10 10 11 11 12 12 13 13 14 14 14 15
Wind_Direction
233 233 232 233 233 234 234 235 236 237 239 238 238 240 241 241 242 244 247 249 252 254 256 258 260 263 266 268 271 273 275 278 281 283 284 286 287 288
233 233 233 233 234 234 234 235 236 236 237 238 238 240 241 242 242 244 247 249 250 251 254 256 259 261 265 268 270 273 276 279 280 282 283 286 287 288
235 235 235 234 234 235 235 236 236 236 237 238 239 239 241 242 242 243 245 248 250 251 252 254 259 263 266 269 271 275 277 279 281 282 285 286 287 288
235 235 235 236 236 236 236 237 236 235 235 237 238 238 240 242 242 243 245 248 250 252 253 254 259 262 266 268 271 274 276 278 281 284 285 287 288 289
233 234 235 235 236 237 238 238 237 236 236 238 238 239 241 242 242 244 245 248 250 251 252 254 257 259 264 267 270 273 276 279 282 285 286 287 288 289
232 233 233 233 233 236 238 239 240 240 239 239 240 241 243 243 243 243 245 247 248 248 250 252 255 259 261 265 269 274 278 280 282 284 285 287 287 288
231 232 233 232 234 236 238 239 240 240 240 240 240 242 244 243 243 242 244 246 246 248 251 254 255 257 259 263 268 273 277 282 284 284 285 287 286 287
229 231 231 231 234 235 235 235 236 238 238 237 237 239 240 241 241 242 243 244 246 248 250 253 255 257 260 264 269 274 279 283 286 287 286 286 288 289
228 227 225 225 229 228 230 230 231 232 232 233 235 235 237 240 242 242 243 244 245 246 249 253 255 258 261 265 269 273 277 281 288 289 286 286 287 290
219 217 219 221 220 221 224 225 226 225 226 229 231 234 235 236 238 238 236 238 243 246 247 248 252 256 261 262 265 271 277 280 283 285 287 289 291 292
205 205 210 214 213 216 219 219 220 221 223 226 226 228 232 232 232 235 237 239 241 241 241 243 248 253 258 261 264 267 273 278 283 284 285 289 293 293
187 193 200 206 211 211 217 217 215 214 215 216 219 224 228 229 231 233 233 232 235 237 238 240 244 250 255 259 260 261 266 273 277 280 285 286 290 296
147 170 185 195 200 201 203 202 203 206 208 213 217 220 222 223 225 224 223 225 228 229 233 238 243 247 250 250 253 256 259 265 271 276 279 284 290 297
106 136 162 176 184 187 189 193 197 199 203 208 212 214 216 215 215 216 218 222 227 228 230 236 241 243 242 242 246 250 256 264 267 272 276 282 291 301
88 107 128 146 158 170 180 184 188 192 198 202 206 210 209 209 210 211 214 219 222 224 228 229 228 230 236 240 243 247 254 259 262 266 272 280 290 298
86 96 109 129 146 158 165 170 176 183 191 196 197 200 202 205 208 211 214 217 219 220 221 219 222 228 234 237 240 243 246 251 255 261 270 278 284 290
83 91 105 119 133 146 158 168 174 182 187 195 197 200 204 208 211 214 216 215 214 214 218 222 225 227 229 232 235 238 242 248 253 260 268 276 281 287
78 84 91 101 113 126 138 154 168 176 179 184 189 194 201 205 205 206 208 209 211 216 219 221 222 225 228 231 236 241 245 250 256 262 269 276 282 289
70 76 83 92 107 121 135 150 162 177 186 192 193 195 199 202 204 205 206 208 213 216 216 218 222 226 230 235 239 244 249 254 260 266 271 275 280 287
55 65 76 90 107 127 141 157 168 176 189 199 206 209 208 208 209 211 213 216 219 219 221 224 228 232 237 240 244 249 253 258 263 268 271 274 278 284
11 23 48 82 127 153 171 185 195 203 206 206 209 213 213 213 216 217 217 220 224 226 231 236 240 242 244 247 251 255 259 261 265 269 271 274 277 282
305 294 278 261 244 236 233 231 228 223 219 212 215 221 222 222 222 221 223 226 230 234 238 241 244 246 249 252 256 258 261 264 267 269 272 275 278 281
279 275 269 261 254 250 245 241 236 231 228 228 230 232 232 229 228 229 231 235 238 240 242 246 249 251 253 257 260 263 266 268 270 272 274 276 278 281
Height
5782 5786 5790 5795 5799 5804 5808 5812 5817 5820 5824 5827 5830 5833 5836 5839 5841 5844 5846 5848 5850 5852 5853 5854 5855 5856 5856 5857 5857 5857 5857 5856 5855 5855 5853 5852 5851 5849
5773 5778 5782 5786 5791 5796 5800 5804 5808 5812 5816 5819 5822 5825 5828 5831 5834 5836 5839 5841 5843 5844 5846 5847 5848 5849 5849 5850 5850 5850 5850 5849 5848 5847 5846 5845 5843 5841
5765 5770 5774 5778 5783 5787 5791 5795 5799 5804 5808 5811 5814 5817 5820 5823 5826 5829 5831 5833 5835 5837 5838 5840 5840 5841 5842 5842 5843 5842 5842 5842 5841 5840 5838 5837 5835 5833
5759 5763 5767 5771 5775 5779 5783 5787 5791 5795 5800 5803 5806 5810 5813 5816 5818 5821 5823 5825 5828 5830 5831 5832 5833 5834 5835 5835 5835 5835 5835 5834 5833 5832 5831 5830 5828 5825
5752 5756 5759 5763 5768 5772 5776 5780 5784 5787 5791 5795 5798 5802 5805 5807 5810 5813 5815 5818 5820 5821 5823 5824 5826 5827 5828 5828 5828 5828 5828 5827 5826 5824 5823 5821 5820 5818
5747 5750 5753 5757 5761 5765 5769 5773 5776 5780 5783 5787 5791 5794 5797 5799 5802 5805 5808 5810 5812 5814 5815 5817 5818 5820 5821 5822 5821 5821 5820 5819 5818 5817 5815 5813 5812 5811
5741 5745 5748 5751 5755 5759 5762 5766 5770 5773 5776 5780 5783 5787 5789 5792 5795 5798 5800 5803 5805 5807 5808 5810 5811 5813 5814 5814 5814 5814 5813 5812 5811 5809 5807 5806 5805 5804
5737 5740 5743 5746 5749 5753 5756 5760 5763 5767 5770 5773 5777 5780 5783 5786 5788 5791 5793 5796 5798 5800 5802 5803 5805 5806 5807 5808 5808 5808 5807 5806 5805 5803 5801 5800 5799 5798
5733 5736 5738 5741 5745 5748 5751 5754 5758 5761 5764 5768 5771 5774 5777 5780 5782 5785 5787 5789 5792 5794 5796 5797 5799 5800 5801 5802 5802 5802 5801 5801 5799 5798 5796 5795 5795 5794
5731 5733 5736 5738 5741 5744 5747 5750 5753 5756 5760 5763 5766 5768 5771 5774 5776 5779 5781 5784 5786 5788 5791 5792 5793 5795 5796 5796 5797 5797 5797 5796 5795 5794 5793 5792 5791 5790
5729 5731 5733 5736 5739 5741 5744 5747 5749 5752 5755 5758 5761 5764 5766 5769 5771 5774 5776 5779 5781 5783 5785 5787 5788 5790 5791 5792 5792 5792 5792 5792 5791 5790 5789 5789 5788 5787
5729 5730 5733 5735 5737 5739 5742 5745 5747 5750 5753 5755 5758 5760 5762 5765 5767 5769 5772 5775 5776 5779 5781 5782 5784 5785 5786 5787 5788 5788 5788 5788 5788 5787 5787 5786 5785 5785
5729 5731 5732 5734 5736 5738 5741 5743 5746 5749 5751 5753 5755 5758 5760 5762 5764 5766 5768 5771 5773 5775 5777 5779 5780 5781 5782 5783 5784 5784 5785 5785 5785 5785 5784 5784 5783 5783
5731 5731 5732 5734 5736 5738 5740 5743 5745 5747 5749 5751 5754 5756 5758 5760 5762 5763 5765 5767 5770 5772 5774 5775 5776 5778 5779 5780 5781 5781 5782 5782 5782 5782 5782 5781 5781 5780
5733 5733 5734 5735 5737 5739 5740 5743 5744 5746 5749 5750 5752 5754 5756 5758 5760 5762 5763 5765 5767 5769 5770 5772 5773 5774 5776 5777 5778 5779 5779 5780 5780 5780 5780 5779 5779 5778
5736 5736 5737 5738 5739 5740 5741 5743 5745 5747 5748 5750 5752 5753 5755 5757 5758 5760 5762 5763 5765 5767 5768 5769 5771 5772 5773 5775 5776 5776 5777 5777 5777 5777 5777 5777 5776 5776
5740 5739 5740 5740 5741 5742 5743 5744 5745 5747 5748 5750 5751 5752 5754 5756 5757 5759 5760 5761 5763 5764 5766 5767 5768 5770 5771 5772 5773 5774 5774 5775 5775 5775 5775 5775 5774 5774
5744 5743 5743 5743 5743 5743 5744 5745 5746 5747 5748 5749 5751 5752 5753 5754 5756 5757 5758 5760 5761 5763 5764 5765 5766 5768 5769 5770 5771 5771 5772 5772 5772 5772 5772 5772 5772 5771
5747 5746 5746 5745 5745 5745 5746 5746 5747 5748 5748 5749 5750 5751 5752 5753 5755 5756 5757 5758 5760 5761 5762 5763 5765 5766 5767 5767 5768 5769 5769 5770 5770 5770 5769 5769 5769 5768
5749 5748 5748 5747 5747 5747 5747 5747 5748 5748 5749 5749 5750 5751 5752 5753 5754 5755 5756 5757 5758 5759 5760 5762 5763 5763 5764 5765 5766 5766 5766 5766 5766 5766 5766 5766 5765 5765
5751 5750 5749 5749 5748 5748 5748 5748 5748 5748 5748 5749 5749 5750 5750 5751 5752 5753 5754 5755 5756 5758 5758 5759 5760 5761 5761 5762 5763 5763 5763 5763 5763 5763 5763 5762 5762 5761
5751 5750 5749 5749 5748 5748 5748 5748 5748 5748 5748 5748 5749 5749 5749 5750 5751 5752 5753 5754 5754 5755 5756 5757 5757 5758 5758 5759 5759 5759 5760 5760 5759 5759 5759 5759 5758 5757
5750 5749 5748 5748 5747 5747 5747 5747 5747 5747 5747 5747 5747 5748 5748 5748 5749 5750 5751 5751 5752 5753 5753 5754 5754 5755 5755 5755 5756 5756 5756 5756 5755 5755 5755 5754 5753 5752